Tracking 31027 objects as of 19-Jul-2025
HD Live streaming from Space Station
objects crossing your sky now

LEASAT 4 PKM

Track LEASAT 4 PKM now!
10-day predictions


NORAD ID: 16001
Int'l Code: 1985-076F
Perigee: 381.0 km
Apogee: 13,952.4 km
Inclination: 27.4 °
Period: 261.3 minutes
Semi major axis: 13537 km
RCS: 3.8918 m2 (large)
Launch date: August 27, 1985
Source: United States (US)
Launch site: AIR FORCE EASTERN TEST RANGE (AFETR)

Note: This is a ROCKET BODY
Your satellite tracking list
FLOCK 4Q 34
Track 1 satellite(s)




NASA's NSSDC Master Catalog

Two Line Element Set (TLE):
1 16001U 85076F   25199.45390607  .00002692  00000-0  11571-2 0  9990
2 16001  27.3749 141.2716 5012456  14.5302 355.7528  5.51171283773748
Source of the keplerian elements: AFSPC